AFR6TJ LSZH-LFPG

Flight info

Callsign AFR6TJ
Flight time N/A
Altitude 32000
Route DEGES Z1 ETAGO DCT KRH DCT BETEX DCT IDOSA UN857 TOLVU/N0494F330 DCT RAPOR DCT VEDUS
Aircraft A359/H-SDE2E3GHIJ3J4J5LM1ORWXY/LB1D1

Departure

Time N/A
Airport Zürich Airport (LSZH)

Arrival

Time 2026-05-01 08:19
Airport Charles de Gaulle International Airport (LFPG)
Time Latitude Longitude Altitude Speed Heading
2026-05-01 07:23 49.25190 8.02490 32326 ft 450 kts 301°
2026-05-01 07:24 49.29759 7.89869 32323 ft 451 kts 301°
2026-05-01 07:24 49.32783 7.81497 32321 ft 451 kts 301°
2026-05-01 07:25 49.35829 7.73049 32322 ft 452 kts 301°
2026-05-01 07:25 49.38845 7.64647 32321 ft 453 kts 301°
2026-05-01 07:26 49.41887 7.56156 32322 ft 453 kts 301°
2026-05-01 07:26 49.44918 7.47659 32321 ft 452 kts 300°
2026-05-01 07:27 49.47928 7.39194 32323 ft 454 kts 300°
2026-05-01 07:27 49.50955 7.30651 32320 ft 454 kts 300°
2026-05-01 07:28 49.53956 7.22149 32319 ft 454 kts 300°
2026-05-01 07:28 49.56970 7.13591 32314 ft 455 kts 300°
2026-05-01 07:29 49.59988 7.04994 32307 ft 455 kts 300°
2026-05-01 07:29 49.62975 6.96453 32298 ft 455 kts 300°
2026-05-01 07:30 49.65978 6.87842 32295 ft 455 kts 300°
2026-05-01 07:30 49.68972 6.79224 32291 ft 455 kts 299°
2026-05-01 07:31 49.71962 6.70590 32296 ft 455 kts 299°
2026-05-01 07:32 49.79399 6.48951 32298 ft 456 kts 299°
2026-05-01 07:32 49.80696 6.44535 32305 ft 457 kts 286°
2026-05-01 07:33 49.80434 6.34752 32307 ft 462 kts 257°
2026-05-01 07:33 49.78067 6.20375 32291 ft 461 kts 256°
2026-05-01 07:34 49.76063 6.05799 32285 ft 462 kts 259°
2026-05-01 07:35 49.74986 5.96036 32288 ft 462 kts 261°
2026-05-01 07:35 49.73594 5.86304 32290 ft 463 kts 252°
2026-05-01 07:36 49.71503 5.76932 32287 ft 462 kts 250°
2026-05-01 07:36 49.69357 5.67529 32282 ft 462 kts 250°
2026-05-01 07:37 49.66238 5.53378 32282 ft 464 kts 250°
2026-05-01 07:37 49.64180 5.44022 32276 ft 463 kts 250°
2026-05-01 07:38 49.62091 5.34585 32275 ft 463 kts 250°
2026-05-01 07:39 49.58989 5.20520 32280 ft 463 kts 257°
2026-05-01 07:39 49.58717 5.15629 32290 ft 465 kts 269°
2026-05-01 07:39 49.58960 5.05600 31998 ft 458 kts 272°
2026-05-01 07:40 49.59127 5.00851 31695 ft 439 kts 272°
2026-05-01 07:40 49.59288 4.96195 31256 ft 426 kts 272°
2026-05-01 07:40 49.59429 4.91728 30838 ft 415 kts 271°
2026-05-01 07:40 49.59551 4.87330 30429 ft 404 kts 271°
2026-05-01 07:41 49.59651 4.83029 29889 ft 395 kts 271°
2026-05-01 07:41 49.59730 4.78859 29208 ft 391 kts 270°
2026-05-01 07:41 49.59840 4.70541 27910 ft 383 kts 269°
2026-05-01 07:42 49.59873 4.66434 27283 ft 380 kts 269°
2026-05-01 07:42 49.59894 4.62404 26668 ft 376 kts 269°
2026-05-01 07:42 49.59906 4.58430 26094 ft 372 kts 268°
2026-05-01 07:42 49.59911 4.54432 25505 ft 369 kts 268°
2026-05-01 07:43 49.59909 4.50526 24945 ft 366 kts 268°
2026-05-01 07:43 49.59904 4.46599 24372 ft 363 kts 268°
2026-05-01 07:43 49.59880 4.38886 23200 ft 356 kts 267°
2026-05-01 07:44 49.59845 4.31320 22006 ft 349 kts 267°
2026-05-01 07:44 49.59802 4.23927 20862 ft 342 kts 267°
2026-05-01 07:45 49.59786 4.21457 20487 ft 340 kts 267°
2026-05-01 07:45 49.59762 4.17864 19964 ft 337 kts 266°
2026-05-01 07:45 49.59533 4.14311 19413 ft 329 kts 248°
2026-05-01 07:45 49.58599 4.11139 18899 ft 322 kts 239°
2026-05-01 07:46 49.57519 4.08132 18638 ft 323 kts 238°
2026-05-01 07:46 49.56427 4.05156 18305 ft 317 kts 238°
2026-05-01 07:46 49.54299 3.99211 17143 ft 314 kts 239°
2026-05-01 07:47 49.53287 3.96254 16677 ft 318 kts 240°
2026-05-01 07:47 49.52286 3.93232 16449 ft 311 kts 240°
2026-05-01 07:47 49.51336 3.90286 16360 ft 309 kts 241°
2026-05-01 07:47 49.50421 3.87281 16311 ft 312 kts 245°
2026-05-01 07:48 49.49055 3.80912 15855 ft 311 kts 250°
2026-05-01 07:48 49.48449 3.77748 15340 ft 310 kts 251°
2026-05-01 07:48 49.47852 3.74591 14815 ft 308 kts 251°
2026-05-01 07:49 49.47249 3.71422 14430 ft 308 kts 251°
2026-05-01 07:49 49.46033 3.65176 14149 ft 303 kts 250°
2026-05-01 07:49 49.45434 3.62167 14101 ft 284 kts 250°
2026-05-01 07:50 49.44879 3.59385 14088 ft 258 kts 250°
2026-05-01 07:50 49.43911 3.54580 14074 ft 216 kts 249°
2026-05-01 07:50 49.43474 3.52451 14067 ft 202 kts 248°
2026-05-01 07:51 49.43044 3.50403 14071 ft 202 kts 248°
2026-05-01 07:51 49.42588 3.48391 14064 ft 199 kts 235°
2026-05-01 07:51 49.41653 3.46914 14104 ft 194 kts 213°
2026-05-01 07:52 49.39488 3.44426 14081 ft 192 kts 213°
2026-05-01 07:52 49.38415 3.43193 14075 ft 193 kts 213°
2026-05-01 07:52 49.37357 3.41958 14106 ft 192 kts 213°
2026-05-01 07:53 49.35170 3.39411 13592 ft 212 kts 213°
2026-05-01 07:53 49.33952 3.38067 13036 ft 219 kts 212°
2026-05-01 07:53 49.32704 3.36711 12665 ft 217 kts 212°
2026-05-01 07:53 49.31612 3.35237 12603 ft 202 kts 230°
2026-05-01 07:54 49.30775 3.31453 12578 ft 187 kts 263°
2026-05-01 07:55 49.30191 3.25548 12504 ft 188 kts 255°
2026-05-01 07:55 49.29698 3.21474 12703 ft 200 kts 257°
2026-05-01 07:56 49.28975 3.14841 12994 ft 226 kts 257°
2026-05-01 07:56 49.28394 3.09869 12979 ft 247 kts 257°
2026-05-01 07:57 49.28088 3.07250 13005 ft 253 kts 257°
2026-05-01 07:57 49.27444 3.01834 13051 ft 265 kts 257°
2026-05-01 07:58 49.26759 2.96173 13077 ft 266 kts 257°
2026-05-01 07:58 49.26149 2.90951 13060 ft 236 kts 257°
2026-05-01 07:59 49.25604 2.86217 12915 ft 220 kts 257°
2026-05-01 07:59 49.25266 2.83186 12772 ft 213 kts 257°
2026-05-01 08:00 49.24383 2.75360 12496 ft 202 kts 257°
2026-05-01 08:01 49.23628 2.68951 12129 ft 214 kts 256°
2026-05-01 08:01 49.23335 2.66622 11709 ft 228 kts 256°
2026-05-01 08:01 49.23031 2.64302 11214 ft 227 kts 256°
2026-05-01 08:02 49.22342 2.59289 10398 ft 251 kts 256°
2026-05-01 08:02 49.21978 2.56651 9939 ft 244 kts 256°
2026-05-01 08:03 49.21364 2.51955 9010 ft 218 kts 256°
2026-05-01 08:03 49.21081 2.49748 8628 ft 203 kts 257°
2026-05-01 08:03 49.20567 2.45715 7845 ft 185 kts 256°
2026-05-01 08:04 49.20070 2.41953 7102 ft 179 kts 256°
2026-05-01 08:04 49.19560 2.38224 6288 ft 179 kts 255°
2026-05-01 08:05 49.19023 2.34471 5390 ft 180 kts 256°
2026-05-01 08:05 49.18807 2.32582 5020 ft 178 kts 257°
2026-05-01 08:05 49.18621 2.30797 4915 ft 166 kts 257°
2026-05-01 08:06 49.18207 2.27382 4872 ft 166 kts 255°
2026-05-01 08:06 49.17821 2.23773 4986 ft 179 kts 258°
2026-05-01 08:07 49.17453 2.19929 5014 ft 185 kts 258°
2026-05-01 08:07 49.16946 2.16171 4978 ft 175 kts 255°
2026-05-01 08:08 49.16698 2.14362 4935 ft 173 kts 255°
2026-05-01 08:08 49.16139 2.10862 4854 ft 167 kts 237°
2026-05-01 08:09 49.14205 2.09678 4815 ft 161 kts 174°
2026-05-01 08:09 49.13033 2.09691 4538 ft 173 kts 181°
2026-05-01 08:09 49.11835 2.09601 4479 ft 172 kts 183°
2026-05-01 08:10 49.09451 2.09284 4354 ft 170 kts 182°
2026-05-01 08:10 49.07136 2.09209 4321 ft 161 kts 180°
2026-05-01 08:11 49.05001 2.09705 4296 ft 154 kts 154°
2026-05-01 08:11 49.03459 2.12035 4090 ft 160 kts 132°
2026-05-01 08:12 49.02011 2.14671 3875 ft 165 kts 132°
2026-05-01 08:12 49.01271 2.16000 3821 ft 164 kts 134°
2026-05-01 08:12 48.99755 2.18594 3725 ft 166 kts 130°
2026-05-01 08:13 48.99081 2.20017 3678 ft 165 kts 128°
2026-05-01 08:13 48.98403 2.21434 3608 ft 164 kts 129°
2026-05-01 08:13 48.97448 2.24406 3330 ft 158 kts 94°
2026-05-01 08:14 48.97663 2.26047 3195 ft 159 kts 72°
2026-05-01 08:14 48.98024 2.27666 3019 ft 161 kts 74°
2026-05-01 08:14 48.98363 2.29282 3004 ft 163 kts 77°
2026-05-01 08:14 48.98645 2.30967 3020 ft 164 kts 82°
2026-05-01 08:15 48.98746 2.32696 3037 ft 164 kts 90°
2026-05-01 08:15 48.98684 2.36155 3021 ft 166 kts 95°
2026-05-01 08:15 48.98618 2.37921 2989 ft 166 kts 96°
2026-05-01 08:16 48.98536 2.39549 2853 ft 145 kts 99°
2026-05-01 08:16 48.98499 2.41079 2480 ft 144 kts 90°
2026-05-01 08:16 48.98575 2.42605 2073 ft 144 kts 89°
2026-05-01 08:16 48.98622 2.44103 1721 ft 142 kts 92°
2026-05-01 08:17 48.98677 2.45675 1490 ft 158 kts 88°
2026-05-01 08:17 48.98798 2.47338 1388 ft 164 kts 86°
2026-05-01 08:17 48.98930 2.49007 1365 ft 147 kts 86°
2026-05-01 08:17 48.99013 2.50455 1153 ft 131 kts 90°
2026-05-01 08:18 48.99058 2.51871 915 ft 136 kts 90°
2026-05-01 08:18 48.99213 2.54643 648 ft 128 kts 88°
2026-05-01 08:19 48.99323 2.57237 355 ft 117 kts 89°
2026-05-01 08:19 48.99374 2.58448 358 ft 102 kts 88°
2026-05-01 08:19 48.99428 2.59370 354 ft 73 kts 83°
2026-05-01 08:19 48.99532 2.59956 353 ft 38 kts 33°
2026-05-01 08:20 48.99718 2.59969 355 ft 13 kts 355°
2026-05-01 08:20 48.99729 2.59967 358 ft 0 kts 355°
2026-05-01 08:23 48.99750 2.59964 357 ft 8 kts 355°
2026-05-01 08:23 48.99809 2.59957 355 ft 7 kts 356°
2026-05-01 08:23 48.99859 2.59968 359 ft 7 kts 21°
2026-05-01 08:23 48.99895 2.60005 358 ft 5 kts 38°
2026-05-01 08:24 48.99915 2.60032 354 ft 4 kts 42°
2026-05-01 08:24 48.99940 2.60056 358 ft 5 kts 25°
2026-05-01 08:24 48.99975 2.60068 355 ft 6 kts 359°
2026-05-01 08:24 49.00007 2.60035 357 ft 6 kts 299°
2026-05-01 08:25 49.00009 2.59977 357 ft 6 kts 269°
2026-05-01 08:25 49.00008 2.59934 356 ft 6 kts 267°
2026-05-01 08:25 49.00003 2.59838 354 ft 7 kts 264°
2026-05-01 08:25 48.99998 2.59754 354 ft 8 kts 266°
2026-05-01 08:26 48.99994 2.59664 356 ft 9 kts 266°
2026-05-01 08:26 48.99989 2.59569 361 ft 9 kts 265°
2026-05-01 08:26 48.99984 2.59463 354 ft 10 kts 265°
2026-05-01 08:26 48.99977 2.59350 357 ft 11 kts 267°
2026-05-01 08:27 48.99972 2.59236 357 ft 11 kts 265°
2026-05-01 08:27 48.99968 2.59156 354 ft 12 kts 265°
2026-05-01 08:27 48.99961 2.59028 356 ft 12 kts 265°
2026-05-01 08:27 48.99951 2.58855 354 ft 11 kts 266°
2026-05-01 08:28 48.99964 2.58760 357 ft 9 kts 307°
2026-05-01 08:28 48.99998 2.58739 356 ft 6 kts
2026-05-01 08:28 49.00034 2.58751 360 ft 5 kts 11°
2026-05-01 08:28 49.00077 2.58765 356 ft 8 kts 12°
2026-05-01 08:29 49.00128 2.58766 356 ft 9 kts 356°
2026-05-01 08:29 49.00198 2.58758 353 ft 11 kts 356°
2026-05-01 08:29 49.00277 2.58747 353 ft 6 kts 342°
2026-05-01 08:29 49.00283 2.58734 361 ft 2 kts 302°
2026-05-01 08:30 49.00290 2.58694 360 ft 4 kts 274°
2026-05-01 08:30 49.00289 2.58667 360 ft 2 kts 266°
2026-05-01 08:30 49.00288 2.58656 360 ft 1 kts 266°
2026-05-01 08:30 49.00287 2.58636 356 ft 3 kts 266°
2026-05-01 08:31 49.00286 2.58614 355 ft 0 kts 265°